sat.trackr.live / text

‹ back to catalog

QIANFAN-234

NORAD 69863 · 2026-155R

PAYLOAD ACTIVE UNKNOWN

§ Identity

Operator
Country
PRC
Launch date
2026-07-05
Launch site
WSC
Launch vehicle
Mass (kg)
RCS (m²)

External: N2YO · Heavens-Above · Gunter

§ Orbital elements

Epoch: 2026-09-19T19:29:00.098880Z

Period
106.16 min
Inclination
89.0076°
Eccentricity
0.0032146
Mean motion
13.56400445 rev/d
Perigee alt
1,024.9 km
Apogee alt
1,072.7 km
Semi-major
7,426.9 km
B*
-2.7950e+0
RAAN
53.7016°
Arg perigee
12.8444°
Mean anomaly
347.3522°
Rev number
1,068

§ Raw data

QIANFAN-2341 69863U 26155R   26262.81180670 -.01839708  00000+0 -27950+1 0  99902 69863  89.0076  53.7016 0032146  12.8444 347.3522 13.56400445 10688

JSON: /api/v1/satellites/69863 · /tle

For live sub-satellite position, see the globe view (requires WebGL).

§ Visibility from observer

Set your observer location to see the next 7 days of passes ≥ 10°. The values pass through the URL so the page stays shareable.

No JS? Fill the form by hand. The geolocation button needs JavaScript.